(430219) = 2013 VZ5

Discovered at Mount Lemmon on 2009-09-19 by Mt. Lemmon Survey.

Orbit

Orbit type: Main Belt

Note: WebGL enabled browser required.

epoch2023-02-25.0
epoch JD2460000.5
perihelion date2021-02-10.96323
perihelion JD2459256.46323
argument of perihelion (°)8.28096
ascending node (°)12.97997
inclination (°)6.81621
eccentricity0.1089947
perihelion distance (AU)2.1408147
Tisserand w.r.t. Jupiter3.5
ΔV w.r.t. Earth (km/sec)9.4
semimajor axis (AU)2.4026957
mean anomaly (°)196.90198
mean daily motion (°/day)0.26464010
aphelion distance (AU)2.665
period (years)3.72
P-vector [x]0.93216738
P-vector [y]0.32498380
P-vector [z]0.15952902
Q-vector [x]-0.36104479
Q-vector [y]0.80206593
Q-vector [z]0.47574879
absolute magnitude17.55
phase slope0.15
uncertainty0
referenceMPO 745323
observations used174
oppositions11
arc length (days)7017
first opposition used2004
last opposition used2023
residual rms (arc-secs)0.82
perturbers coarse indicatorM-v
perturbers precise indicator003Ek
first observation date used2004-03-29.0
last observation date used2023-06-15.0
computer nameMPCLINUX
JD of orbit computation2457073.469840
perihelion JD uncertainty (days)1.0909E-04
argument of perihelion uncertainty (°)6.1658E-05
ascending node uncertainty (°)5.0327E-05
inclination uncertainty (°)1.0876E-05
eccentricity uncertainty 1.7950E-07
perihelion distance uncertainty (AU)4.0449E-07
Minimum Orbit Intersection Distances (in AU)
for orbit epoch: 2460000.5, reference: E2023-M09
Mercury1.7956
Venus1.41794
Earth1.14173
Mars0.7048
Jupiter2.79013
Saturn6.72067
Uranus15.8171
Neptune27.7138

Observations

177 total observations over interval: 2004 03 29.30894 – 2023 06 15.296014
These data are available for download (format description).

Date (UT) J2000 RA J2000 Dec Magn Location Ref
2004 03 29.30894 12 52 28.36 -05 24 21.5 21.3 V 691 – Steward Observatory, Kitt Peak-Spacewatch MPS 506572
2004 03 29.34332 12 52 26.25 -05 24 13.4 21.8 V 691 – Steward Observatory, Kitt Peak-Spacewatch MPS 506572
2004 03 29.37221 12 52 24.48 -05 24 07.3 21.6 V 691 – Steward Observatory, Kitt Peak-Spacewatch MPS 506572
2005 07 17.34138 21 06 56.04 -28 11 08.5 20.6   644 – Palomar Mountain/NEAT MPS 506572
2005 07 17.40973 21 06 52.28 -28 11 26.2 20.6   644 – Palomar Mountain/NEAT MPS 506572
2005 07 17.47539 21 06 48.68 -28 11 41.7 21.4   644 – Palomar Mountain/NEAT MPS 506572
2009 09 19.29027 23 39 34.02 -06 41 27.1 19.6 V G96 – Mt. Lemmon Survey MPS 506572
2009 09 19.30134 23 39 33.30 -06 41 28.4 19.7 V G96 – Mt. Lemmon Survey MPS 506572
2009 09 19.31144 23 39 32.68 -06 41 29.6 19.8 V G96 – Mt. Lemmon Survey MPS 506572
2009 09 19.32155 23 39 32.04 -06 41 30.4 19.8 V G96 – Mt. Lemmon Survey MPS 506572
2009 11 09.18828 23 14 52.94 -05 15 51.8 21.1 V G96 – Mt. Lemmon Survey MPS 506572
2009 11 09.19551 23 14 53.01 -05 15 49.6 20.8 V G96 – Mt. Lemmon Survey MPS 506572
2009 11 09.20243 23 14 53.12 -05 15 47.6 20.4 V G96 – Mt. Lemmon Survey MPS 506572
2009 11 09.20947 23 14 53.19 -05 15 44.8 20.6 V G96 – Mt. Lemmon Survey MPS 506572
2011 02 13.34269 10 09 31.10 +20 07 26.9 20.8 V G96 – Mt. Lemmon Survey MPS 506572
2011 02 13.34910 10 09 30.67 +20 07 28.3 20.5 V G96 – Mt. Lemmon Survey MPS 506572
2011 02 13.35552 10 09 30.31 +20 07 29.7 20.7 V G96 – Mt. Lemmon Survey MPS 506572
2011 02 13.36190 10 09 29.84 +20 07 31.5 20.9 V G96 – Mt. Lemmon Survey MPS 506572
2011 03 03.24782 09 50 49.12 +20 56 51.3 20.7 V G96 – Mt. Lemmon Survey MPS 506572
2011 03 03.25311 09 50 48.80 +20 56 51.7 21.1 V G96 – Mt. Lemmon Survey MPS 506572
2011 03 03.29353 09 50 46.42 +20 56 55.0 21.1 V G96 – Mt. Lemmon Survey MPS 506572
2011 03 03.30134 09 50 45.99 +20 56 56.1 21.0 V G96 – Mt. Lemmon Survey MPS 506572
2013 10 07.35698 02 59 38.23 +21 14 19.4 20.0 V 691 – Steward Observatory, Kitt Peak-Spacewatch MPS 493558
2013 10 07.37497 02 59 37.55 +21 14 21.9 20.5 V 691 – Steward Observatory, Kitt Peak-Spacewatch MPS 493558
2013 10 07.39296 02 59 36.87 +21 14 25.0 20.3 V 691 – Steward Observatory, Kitt Peak-Spacewatch MPS 493558
2013 10 28.34913 02 41 14.88 +21 40 21.0 20.0 V 703 – Catalina Sky Survey MPS 487305
2013 10 28.35367 02 41 14.65 +21 40 21.4 19.9 V 703 – Catalina Sky Survey MPS 487305
2013 10 28.35820 02 41 14.36 +21 40 20.5 20.5 V 703 – Catalina Sky Survey MPS 487305
2013 10 28.36276 02 41 14.05 +21 40 20.8 20.2 V 703 – Catalina Sky Survey MPS 487305
2013 11 01.16971 02 37 03.61 +21 38 00.2 19.6 r I41 – Palomar Mountain--ZTF MPS 492108
2013 11 01.22076 02 37 00.09 +21 37 57.9 19.7 r I41 – Palomar Mountain--ZTF MPS 492108
2013 11 01.94382 02 36 11.91 +21 37 18.4 20.0   J43 – Oukaimeden Observatory, Marrakech MPS 487305
2013 11 01.95404 02 36 11.22 +21 37 18.1 19.7   J43 – Oukaimeden Observatory, Marrakech MPS 487305
2013 11 01.96422 02 36 10.50 +21 37 17.5 20.2   J43 – Oukaimeden Observatory, Marrakech MPS 487305
2013 11 01.97447 02 36 09.78 +21 37 17.1 20.3   J43 – Oukaimeden Observatory, Marrakech MPS 487305
2013 11 04.30639 02 33 34.11 +21 34 41.2 19.6 r I41 – Palomar Mountain--ZTF MPS 485425
2013 11 04.33091 02 33 32.40 +21 34 39.3 19.8 r I41 – Palomar Mountain--ZTF MPS 485425
2013 11 05.34920 02 32 24.59 +21 33 19.4 19.9 r I41 – Palomar Mountain--ZTF MPS 485425
2013 11 05.37418 02 32 22.86 +21 33 17.3 20.0 r I41 – Palomar Mountain--ZTF MPS 485425
2013 11 05.39871 02 32 21.16 +21 33 15.0 20.0 r I41 – Palomar Mountain--ZTF MPS 485425
2013 11 06.28948 02 31 22.49 +21 32 00.8 19.7 V 703 – Catalina Sky Survey MPS 487306
2013 11 06.29503 02 31 21.98 +21 32 00.5 19.3 V 703 – Catalina Sky Survey MPS 487306
2013 11 06.30057 02 31 21.62 +21 31 59.7 19.4 V 703 – Catalina Sky Survey MPS 487306
2013 11 06.30612 02 31 21.38 +21 31 59.5 19.6 V 703 – Catalina Sky Survey MPS 487306
2013 11 09.24749 02 28 08.97 +21 27 15.8 19.8 r I41 – Palomar Mountain--ZTF MPS 487306
2013 11 09.27234 02 28 07.28 +21 27 13.3 19.9 r I41 – Palomar Mountain--ZTF MPS 487306
2013 11 09.31799 02 28 04.20 +21 27 08.6 19.7 r I41 – Palomar Mountain--ZTF MPS 487306
2013 11 12.09231 02 25 08.52 +21 22 01.6 20.3 V 691 – Steward Observatory, Kitt Peak-Spacewatch MPS 487306
2013 11 12.11005 02 25 07.37 +21 21 59.7 20.3 V 691 – Steward Observatory, Kitt Peak-Spacewatch MPS 487306
2013 11 12.14402 02 25 05.18 +21 21 56.2 20.0 V 691 – Steward Observatory, Kitt Peak-Spacewatch MPS 487306
2015 01 21.61832 12 20 18.473 +02 31 28.65 21.9 w F51 – Pan-STARRS 1, Haleakala MPS 562815
2015 01 21.63063 12 20 18.534 +02 31 27.80 21.9 w F51 – Pan-STARRS 1, Haleakala MPS 562815
2015 01 21.64291 12 20 18.619 +02 31 26.89 22.0 w F51 – Pan-STARRS 1, Haleakala MPS 562815
2015 02 18.53386 12 13 26.285 +02 56 04.49 21.4 w F51 – Pan-STARRS 1, Haleakala MPS 587085
2015 02 18.54632 12 13 25.790 +02 56 06.40 21.5 w F51 – Pan-STARRS 1, Haleakala MPS 587085
2015 02 18.55879 12 13 25.303 +02 56 08.55 21.3 w F51 – Pan-STARRS 1, Haleakala MPS 587085
2015 02 18.57125 12 13 24.817 +02 56 10.56 21.2 w F51 – Pan-STARRS 1, Haleakala MPS 587085
2015 02 19.50633 12 12 49.437 +02 58 48.10 21.3 w F51 – Pan-STARRS 1, Haleakala MPS 580415
2015 02 19.51876 12 12 48.938 +02 58 50.34 21.2 w F51 – Pan-STARRS 1, Haleakala MPS 580415
2015 02 19.53125 12 12 48.424 +02 58 52.42 21.5 w F51 – Pan-STARRS 1, Haleakala MPS 580415
2015 02 19.54371 12 12 47.911 +02 58 54.26 21.5 w F51 – Pan-STARRS 1, Haleakala MPS 580415
2015 03 10.30110 11 57 12.62 +04 06 11.5 21.4 V 691 – Steward Observatory, Kitt Peak-Spacewatch MPS 587085
2015 03 10.31997 11 57 11.50 +04 06 16.0 21.3 V 691 – Steward Observatory, Kitt Peak-Spacewatch MPS 587085
2015 03 10.33886 11 57 10.36 +04 06 21.1 21.0 V 691 – Steward Observatory, Kitt Peak-Spacewatch MPS 587085
2017 12 29.18480 05 41 49.89 +34 56 25.4 20.2 G G96 – Mt. Lemmon Survey MPS 854129
2017 12 29.19003 05 41 49.54 +34 56 25.2 20.3 G G96 – Mt. Lemmon Survey MPS 854129
2017 12 29.20051 05 41 48.78 +34 56 23.9 20.4 G G96 – Mt. Lemmon Survey MPS 854129
2019 02 04.61568 13 52 26.113 -10 55 40.97 22.2 w F51 – Pan-STARRS 1, Haleakala MPS 969650
2019 02 04.62614 13 52 26.361 -10 55 43.55 22.1 w F51 – Pan-STARRS 1, Haleakala MPS 969650
2019 02 04.63658 13 52 26.612 -10 55 45.55 22.2 w F51 – Pan-STARRS 1, Haleakala MPS 969650
2019 02 04.64703 13 52 26.871 -10 55 48.33 22.2 w F51 – Pan-STARRS 1, Haleakala MPS 969650
2019 03 31.40643 13 37 36.36 -11 41 07.9 21.6 G G96 – Mt. Lemmon Survey MPS 1143203
2019 03 31.41155 13 37 36.06 -11 41 07.7 22.2 G G96 – Mt. Lemmon Survey MPS 1143203
2019 03 31.41665 13 37 35.79 -11 41 06.0 22.0 G G96 – Mt. Lemmon Survey MPS 1143203
2019 03 31.42176 13 37 35.52 -11 41 06.8 21.3 G G96 – Mt. Lemmon Survey MPS 1143203
2019 04 06.44375 13 31 52.168 -11 24 47.10 21.1 w F51 – Pan-STARRS 1, Haleakala MPS 990351
2019 04 06.45604 13 31 51.407 -11 24 44.96 21.2 w F51 – Pan-STARRS 1, Haleakala MPS 990351
2019 04 06.48058 13 31 49.916 -11 24 40.61 21.2 w F51 – Pan-STARRS 1, Haleakala MPS 990351
2019 04 08.39181 13 29 56.697 -11 18 54.68 20.8 w F51 – Pan-STARRS 1, Haleakala MPS 990351
2019 04 08.40342 13 29 55.984 -11 18 52.55 21.1 w F51 – Pan-STARRS 1, Haleakala MPS 990351
2019 04 08.41506 13 29 55.254 -11 18 50.44 20.9 w F51 – Pan-STARRS 1, Haleakala MPS 990351
2019 04 08.42086 13 29 54.891 -11 18 49.54 20.9 w F51 – Pan-STARRS 1, Haleakala MPS 990351
2019 04 08.42668 13 29 54.536 -11 18 48.40 21.2 w F51 – Pan-STARRS 1, Haleakala MPS 990351
2019 04 08.43248 13 29 54.186 -11 18 47.22 20.9 w F51 – Pan-STARRS 1, Haleakala MPS 990351
2019 04 09.43459 13 28 54.163 -11 15 40.18 21.1 w F51 – Pan-STARRS 1, Haleakala MPS 990351
2019 04 09.44689 13 28 53.407 -11 15 37.90 20.9 w F51 – Pan-STARRS 1, Haleakala MPS 990351
2019 04 09.45918 13 28 52.641 -11 15 35.61 20.9 w F51 – Pan-STARRS 1, Haleakala MPS 990351
2019 04 09.47146 13 28 51.875 -11 15 33.32 21.0 w F51 – Pan-STARRS 1, Haleakala MPS 990351
2019 04 25.22343 13 13 16.17 -10 22 40.6 21.5 G G96 – Mt. Lemmon Survey MPS 1000739
2019 04 25.22901 13 13 15.91 -10 22 39.9 21.5 G G96 – Mt. Lemmon Survey MPS 1000739
2019 04 25.23461 13 13 15.48 -10 22 38.1 21.3 G G96 – Mt. Lemmon Survey MPS 1000739
